TimeCDT,TemperatureF,Dew PointF,Humidity,Sea Level PressureIn,VisibilityMPH,Wind Direction,Wind SpeedMPH,Gust SpeedMPH,PrecipitationIn,Events,Conditions,WindDirDegrees,DateUTC
12:13 AM,62.6,55.4,77,29.88,10.0,West,10.4,-,N/A,,Overcast,270,2013-06-02 05:13:00
12:54 AM,61.0,55.9,83,29.86,10.0,West,8.1,-,N/A,,Overcast,270,2013-06-02 05:54:00
1:49 AM,62.6,57.2,82,29.87,10.0,WNW,13.8,-,N/A,,Overcast,290,2013-06-02 06:49:00
1:54 AM,62.1,57.0,84,29.86,10.0,WNW,10.4,-,N/A,,Overcast,290,2013-06-02 06:54:00
2:22 AM,60.8,57.2,88,29.88,10.0,West,6.9,-,N/A,,Overcast,280,2013-06-02 07:22:00
2:54 AM,61.0,55.9,83,29.87,10.0,West,11.5,-,N/A,,Overcast,280,2013-06-02 07:54:00
3:15 AM,60.8,57.2,88,29.90,10.0,West,9.2,-,N/A,,Overcast,280,2013-06-02 08:15:00
3:54 AM,61.0,55.9,83,29.90,10.0,West,10.4,-,N/A,,Overcast,280,2013-06-02 08:54:00
4:54 AM,61.0,54.0,78,29.91,10.0,NW,11.5,-,N/A,,Overcast,310,2013-06-02 09:54:00
5:54 AM,60.1,53.1,78,29.93,10.0,NW,13.8,-,N/A,,Overcast,310,2013-06-02 10:54:00
6:11 AM,60.8,51.8,72,29.94,10.0,NW,13.8,-,N/A,,Overcast,320,2013-06-02 11:11:00
6:54 AM,59.0,53.1,81,29.94,10.0,NW,9.2,-,N/A,,Mostly Cloudy,310,2013-06-02 11:54:00
7:54 AM,60.1,54.0,80,29.95,10.0,NW,12.7,-,N/A,,Mostly Cloudy,320,2013-06-02 12:54:00
8:54 AM,62.1,53.1,72,29.96,10.0,NW,10.4,19.6,N/A,,Overcast,320,2013-06-02 13:54:00
9:01 AM,60.8,53.6,77,29.97,10.0,NW,11.5,-,N/A,,Overcast,320,2013-06-02 14:01:00
9:22 AM,60.8,51.8,72,29.98,10.0,NNW,13.8,-,N/A,,Overcast,330,2013-06-02 14:22:00
9:29 AM,60.8,53.6,77,29.99,10.0,WNW,12.7,-,N/A,,Overcast,300,2013-06-02 14:29:00
9:52 AM,60.8,53.6,77,29.99,10.0,NW,11.5,-,N/A,,Overcast,310,2013-06-02 14:52:00
9:54 AM,61.0,53.1,75,29.98,10.0,NW,11.5,-,N/A,,Overcast,310,2013-06-02 14:54:00
10:33 AM,60.8,51.8,72,30.00,10.0,NW,13.8,-,N/A,,Overcast,320,2013-06-02 15:33:00
10:54 AM,61.0,51.1,70,30.00,10.0,NNW,15.0,-,N/A,,Overcast,340,2013-06-02 15:54:00
11:11 AM,60.8,51.8,72,30.01,10.0,NNW,11.5,-,N/A,,Overcast,340,2013-06-02 16:11:00
11:28 AM,60.8,51.8,72,30.02,10.0,NNW,12.7,-,N/A,,Overcast,330,2013-06-02 16:28:00
11:54 AM,61.0,51.1,70,30.01,10.0,NW,15.0,-,N/A,,Overcast,320,2013-06-02 16:54:00
12:35 PM,62.6,51.8,68,30.02,10.0,NNW,12.7,-,N/A,,Overcast,340,2013-06-02 17:35:00
12:54 PM,63.0,52.0,67,30.01,10.0,NW,11.5,-,N/A,,Overcast,320,2013-06-02 17:54:00
1:03 PM,62.6,51.8,68,30.02,10.0,WNW,11.5,-,N/A,,Overcast,300,2013-06-02 18:03:00
1:18 PM,62.6,51.8,68,30.03,10.0,NW,13.8,-,N/A,,Overcast,310,2013-06-02 18:18:00
1:54 PM,61.0,50.0,67,30.02,10.0,NNW,11.5,-,N/A,,Overcast,340,2013-06-02 18:54:00
2:04 PM,62.6,51.8,68,30.03,10.0,NNW,11.5,-,N/A,,Overcast,330,2013-06-02 19:04:00
2:54 PM,63.0,48.9,60,30.03,10.0,NNW,11.5,-,N/A,,Overcast,340,2013-06-02 19:54:00
3:54 PM,62.1,48.9,62,30.02,10.0,North,12.7,-,N/A,,Overcast,350,2013-06-02 20:54:00
4:54 PM,62.1,48.9,62,30.02,10.0,North,9.2,-,N/A,,Overcast,350,2013-06-02 21:54:00
5:54 PM,61.0,48.0,62,30.02,10.0,NNW,11.5,-,N/A,,Overcast,340,2013-06-02 22:54:00
6:54 PM,60.1,48.0,64,30.02,10.0,North,10.4,-,N/A,,Overcast,350,2013-06-02 23:54:00
7:54 PM,57.9,46.9,67,30.04,10.0,North,5.8,-,N/A,,Overcast,350,2013-06-03 00:54:00
8:54 PM,57.9,45.0,62,30.04,10.0,NW,6.9,-,N/A,,Overcast,320,2013-06-03 01:54:00
9:54 PM,57.0,46.0,67,30.04,10.0,NW,4.6,-,N/A,,Overcast,320,2013-06-03 02:54:00
10:54 PM,57.0,46.0,67,30.05,10.0,WNW,3.5,-,N/A,,Overcast,300,2013-06-03 03:54:00
11:54 PM,57.0,46.0,67,30.05,10.0,Calm,Calm,-,N/A,,Overcast,0,2013-06-03 04:54:00